This demonstration page uses our WeatherBlox Daily Observations layout. Learn more.

Left ArrowRight Arrow

41.86663, -103.66717

Hourly Observations for August 15, 2022

Temp ( °F °C ) Dew Point ( °F °C ) Humidity (%) Winds ( mph kmh ) Pressure ( in mb ) Visibility ( mi km ) Precip ( " mm )
12:53 am 00:53 Mostly Cloudy with Light Rain 68 20 64 17.8 87 87 SSE 7 11 29.94 1014 10 16 0.01 0.13
1:53 am 01:53 Mostly Clear 67 19.4 64 17.8 90 90 W 3 6 29.93 1014 10 16 0.01 0.13
2:53 am 02:53 Clear 67 19.4 63 17.2 87 87 Calm 29.90 1012 10 16 0.00 0.00
3:53 am 03:53 Clear 66 18.9 63 17.2 90 90 Calm 29.88 1012 10 16 0.00 0.00
4:53 am 04:53 Clear 66 18.9 63 17.2 90 90 NW 3 6 29.88 1012 10 16 0.00 0.00
5:53 am 05:53 Mostly Clear 66 18.9 63 17.2 90 90 W 3 6 29.91 1013 10 16 0.00 0.00
6:53 am 06:53 Mostly Sunny 67 19.4 63 17.2 87 87 WNW 5 7 29.91 1013 10 16 0.00 0.00
7:53 am 07:53 Sunny 69 20.6 62 16.7 78 78 WNW 7 11 29.95 1014 10 16 0.00 0.00
8:53 am 08:53 Mostly Cloudy 72 22.2 62 16.7 71 71 W 8 13 29.96 1014 10 16 0.00 0.00
9:33 am 09:33 Partly Cloudy 72 22.2 63 17.2 73 73 W 7 11 29.87 1011 10 16 0.00 0.00
9:53 am 09:53 Partly Cloudy 73 22.8 63 17.2 71 71 WNW 7 11 29.96 1015 10 16 0.00 0.00
10:53 am 10:53 Partly Cloudy 79 26.1 64 17.8 60 60 W 12 19 29.96 1014 10 16 0.00 0.00
11:53 am 11:53 Mostly Sunny 80 26.7 62 16.7 54 54 WNW 9 15 29.95 1014 10 16 0.00 0.00
12:53 pm 12:53 Mostly Cloudy 83 28.3 61 16.1 48 48 NW 13 20 29.94 1014 10 16 0.00 0.00
1:53 pm 13:53 Mostly Cloudy 83 28.3 60 15.6 46 46 NNW 7 11 29.93 1014 10 16 0.00 0.00
2:53 pm 14:53 Partly Cloudy 84 28.9 59 15 43 43 NE 12 19 29.92 1013 10 16 0.00 0.00
3:53 pm 15:53 Partly Cloudy 82 27.8 59 15 46 46 N 12 19 29.93 1014 10 16 0.01 0.13
4:53 pm 16:53 Partly Cloudy 83 28.3 58 14.4 43 43 NNE 16 26 29.93 1013 10 16 0.00 0.00
5:53 pm 17:53 Sunny 83 28.3 58 14.4 43 43 NNE 14 22 29.94 1014 10 16 0.00 0.00
6:53 pm 18:53 Partly Cloudy 78 25.6 61 16.1 56 56 NNE 15 24 29.96 1015 10 16 0.00 0.00
7:53 pm 19:53 Sunny 75 23.9 61 16.1 62 62 NE 8 13 29.98 1015 10 16 0.00 0.00
8:53 pm 20:53 Clear 71 21.7 62 16.7 73 73 ENE 3 6 30.01 1016 10 16 0.00 0.00
9:53 pm 21:53 Clear 70 21.1 62 16.7 76 76 N 3 6 30.01 1016 10 16 0.00 0.00
10:53 pm 22:53 Clear 68 20 62 16.7 81 81 ENE 3 6 30.01 1016 10 16 0.00 0.00
11:53 pm 23:53 Clear 65 18.3 61 16.1 87 87 N 3 6 30.02 1017 10 16 0.00 0.00

Powered by AerisWeather